Temp
72 72 72 72 72 72 72 72 71 72 72 73 73 73 74 74 74 71 72 73 73 72 72 73 73 72 72 72 71 70 70 70 67 70 69 73 72 74 75 75 77 76 73
72 72 72 71 72 72 72 72 72 72 72 73 73 73 73 74 73 72 72 75 73 73 73 73 73 76 72 71 70 70 70 70 68 67 68 72 72 74 74 77 77 81 76
72 72 71 71 71 72 72 72 72 72 73 72 72 72 72 73 74 74 75 74 73 73 73 74 76 72 71 70 70 70 69 71 68 67 68 69 72 73 74 74 73 72 78
70 70 71 71 72 72 72 72 72 73 72 73 73 73 73 73 73 73 74 73 72 73 74 77 75 73 73 71 71 70 69 69 68 67 67 68 68 70 70 69 69 70 71
69 68 68 69 71 72 72 72 72 71 72 72 72 72 72 73 72 71 72 72 72 72 72 72 71 71 71 72 71 70 69 68 68 67 66 67 67 68 68 69 68 68 69
68 67 68 68 69 68 70 71 71 71 71 71 72 71 70 70 64 67 70 71 71 71 70 69 68 70 69 67 69 68 69 69 67 67 66 65 66 67 68 68 67 67 65
67 67 67 67 67 67 68 69 69 69 70 70 70 69 65 64 63 65 67 70 70 70 70 69 69 68 69 69 66 66 66 66 67 68 66 66 66 68 65 66 66 67 66
65 65 66 66 65 66 67 68 68 69 68 66 64 63 62 61 62 62 65 71 70 69 70 68 65 65 65 68 67 65 65 65 64 67 63 64 64 65 65 67 67 67 68
63 63 65 66 65 65 65 67 68 67 64 63 62 61 59 57 58 61 64 67 66 65 65 65 65 65 62 65 67 65 64 63 67 64 63 63 64 64 64 66 64 64 63
62 62 63 64 64 64 64 64 63 62 60 60 58 58 58 57 55 57 64 64 62 60 62 60 60 61 58 60 63 63 61 60 62 63 63 65 65 65 64 61 62 61 61
60 61 61 62 63 64 62 61 60 59 59 57 56 56 56 54 53 56 59 63 61 59 60 60 58 56 55 56 58 61 60 60 61 61 61 62 63 63 63 62 62 61 57
58 58 59 60 61 63 61 60 59 59 57 57 57 56 56 54 52 52 53 55 58 58 57 59 57 53 53 55 58 57 58 59 59 58 58 56 57 57 59 59 59 60 60
55 54 54 58 59 59 61 60 60 59 58 57 56 54 52 52 52 51 52 54 55 56 57 57 54 53 54 57 56 57 58 57 56 54 52 51 52 54 56 55 56 55 55
55 53 52 53 55 56 57 56 59 59 57 56 55 53 52 52 53 54 52 53 55 57 58 59 58 57 56 57 58 57 57 56 54 51 49 50 51 52 52 53 49 51 48
57 56 55 54 53 52 50 51 54 52 51 58 55 52 51 50 52 49 50 52 53 50 54 55 56 56 56 55 55 55 54 53 50 47 47 47 48 49 49 50 49 45 43
55 57 56 55 54 51 52 52 48 47 46 45 47 50 47 48 46 44 43 44 46 47 52 51 51 54 53 52 52 51 50 49 47 47 46 47 46 45 44 45 44 41 41
56 56 55 51 54 53 53 52 51 52 46 45 44 44 45 44 44 44 44 45 47 52 54 51 48 49 50 50 50 49 47 46 45 45 44 45 45 45 43 43 43 42 41
49 53 51 49 50 54 52 53 50 52 52 52 49 48 44 43 43 45 46 50 51 49 48 47 46 47 46 46 47 47 45 45 43 42 42 42 42 42 41 40 40 40 39
49 49 49 49 49 50 50 51 53 52 52 52 52 51 48 44 44 45 48 53 50 49 49 48 47 47 43 44 43 42 43 44 43 42 42 41 41 41 40 39 40 41 40
49 54 52 49 49 49 49 50 50 52 52 52 52 53 53 53 53 51 50 50 49 49 48 45 45 44 44 42 41 40 40 40 38 38 37 36 36 36 37 37 36 36 35
49 49 55 48 49 49 49 49 48 48 47 48 48 48 48 53 52 51 50 50 50 49 47 47 46 44 43 43 43 41 40 39 38 36 36 36 36 35 36 35 36 38 39
49 49 48 49 48 48 48 48 47 48 49 49 48 48 45 50 50 50 49 49 50 50 49 48 46 46 45 43 43 43 42 41 40 39 37 35 35 34 34 34 34 35 35
48 49 48 48 48 50 48 48 48 48 48 49 49 48 46 48 49 49 50 51 50 49 48 48 47 46 45 44 44 43 41 40 39 37 36 34 34 33 34 34 34 33 34
49 50 50 50 49 48 47 48 47 47 49 49 48 48 47 47 48 49 50 48 48 48 48 47 47 47 45 44 43 43 42 40 39 38 36 34 34 34 32 32 33 34 34
52 53 52 52 51 53 51 50 48 48 49 49 48 47 46 47 47 48 47 47 48 47 47 47 47 47 46 45 43 42 39 35 38 37 36 36 34 34 33 32 33 34 34
50 52 53 52 52 52 52 52 51 51 50 50 50 48 47 47 47 47 47 47 47 47 47 48 47 47 46 45 44 40 35 33 36 35 35 34 33 32 32 33 34 34 34
MSLP
1017.25 1017.65 1018.08 1018.40 1018.67 1018.75 1018.85 1018.96 1018.95 1018.83 1018.85 1018.89 1019.03 1019.28 1019.57 1019.87 1020.00 1020.48 1020.52 1020.44 1020.49 1020.52 1020.49 1020.44 1020.42 1020.34 1020.25 1020.28 1020.40 1020.46 1020.57 1020.60 1020.82 1020.35 1020.10 1019.50 1019.18 1018.88 1018.48 1018.47 1018.22 1018.18 1018.19
1016.79 1017.41 1017.77 1018.10 1018.40 1018.59 1018.67 1018.77 1018.78 1018.83 1018.51 1018.76 1018.94 1019.21 1019.38 1019.65 1019.95 1020.11 1020.38 1020.29 1020.39 1020.42 1020.29 1020.16 1020.09 1020.22 1020.38 1020.46 1020.41 1020.45 1020.58 1020.48 1020.57 1020.59 1020.40 1019.97 1019.71 1019.44 1019.17 1018.99 1018.92 1018.39 1018.30
1016.52 1017.09 1017.55 1017.93 1018.26 1018.35 1018.34 1018.48 1018.54 1018.72 1018.57 1018.53 1018.71 1019.02 1019.28 1019.50 1019.69 1019.88 1020.07 1020.15 1020.23 1020.20 1020.16 1020.15 1019.94 1020.08 1020.24 1020.28 1020.29 1020.49 1020.63 1020.67 1020.68 1020.69 1020.62 1020.31 1020.13 1019.97 1019.80 1019.50 1019.59 1019.03 1018.56
1016.28 1016.85 1017.24 1017.60 1017.91 1018.18 1018.18 1018.29 1018.50 1018.47 1018.59 1018.52 1018.60 1018.82 1019.02 1019.17 1019.31 1019.51 1019.64 1019.79 1019.98 1020.11 1020.07 1019.99 1019.82 1019.97 1020.01 1020.31 1020.48 1020.55 1020.64 1020.76 1020.89 1020.96 1020.92 1020.78 1020.67 1020.25 1020.16 1020.24 1020.02 1019.66 1019.27
1016.45 1017.08 1017.59 1017.63 1017.70 1017.89 1018.09 1018.07 1018.11 1018.48 1018.55 1018.57 1018.72 1018.68 1018.96 1019.11 1019.28 1019.45 1019.54 1019.52 1019.71 1019.87 1019.98 1020.08 1020.07 1019.98 1019.83 1019.99 1020.33 1020.38 1020.52 1020.74 1020.81 1020.94 1021.17 1021.14 1021.03 1020.79 1020.78 1020.65 1020.44 1020.08 1019.75
1016.96 1017.04 1017.52 1017.51 1017.56 1017.88 1017.76 1017.97 1018.11 1018.31 1018.49 1018.51 1018.64 1018.85 1019.04 1019.09 1019.22 1019.32 1019.34 1019.39 1019.54 1019.79 1020.01 1020.15 1020.23 1020.05 1019.98 1019.99 1020.05 1020.08 1020.22 1020.48 1020.70 1020.99 1021.29 1021.39 1021.18 1021.08 1020.98 1020.91 1020.68 1020.40 1020.24
1017.01 1017.39 1017.34 1017.85 1017.63 1017.80 1017.80 1018.00 1018.28 1018.60 1018.81 1018.62 1018.52 1018.74 1019.16 1019.41 1019.44 1019.17 1019.04 1019.21 1019.36 1019.46 1019.69 1020.04 1020.40 1020.57 1020.33 1020.12 1020.18 1020.21 1020.32 1020.37 1020.56 1020.82 1021.09 1021.14 1021.07 1020.94 1021.03 1020.81 1020.72 1020.60 1020.61
1017.15 1017.49 1017.35 1017.58 1017.68 1017.78 1017.78 1018.05 1018.15 1018.60 1019.26 1019.46 1019.70 1019.50 1019.58 1019.76 1019.86 1019.49 1019.53 1019.16 1019.22 1019.50 1019.66 1020.13 1020.27 1020.50 1020.35 1020.50 1020.58 1020.69 1020.72 1020.63 1020.71 1020.72 1020.93 1021.02 1020.88 1020.65 1020.67 1020.61 1020.56 1020.64 1020.69
1017.66 1017.58 1017.26 1016.73 1017.32 1017.37 1017.89 1017.87 1018.06 1018.79 1019.45 1019.70 1019.79 1019.85 1020.18 1020.27 1019.98 1019.79 1019.80 1019.62 1019.83 1020.06 1020.37 1020.49 1020.59 1020.71 1020.61 1020.59 1020.71 1021.01 1021.16 1021.15 1020.88 1021.00 1021.10 1021.05 1020.79 1020.65 1020.43 1020.38 1020.83 1020.97 1021.33
1017.63 1017.74 1017.57 1017.36 1017.79 1017.85 1018.41 1018.73 1019.32 1019.67 1020.12 1020.55 1020.92 1021.06 1020.98 1020.55 1020.02 1020.00 1020.26 1020.53 1020.48 1020.91 1021.09 1020.88 1020.85 1021.12 1021.04 1021.02 1021.13 1021.29 1021.63 1021.91 1021.61 1021.56 1021.62 1021.47 1021.44 1021.37 1021.30 1021.40 1021.45 1021.66 1021.98
1017.82 1017.77 1017.79 1018.49 1018.82 1019.25 1019.78 1019.92 1019.98 1020.12 1020.46 1021.01 1021.29 1021.63 1021.52 1021.22 1019.94 1020.04 1020.32 1020.97 1021.49 1021.36 1021.55 1021.76 1021.71 1021.61 1021.70 1021.64 1021.54 1021.75 1022.04 1022.22 1022.37 1022.35 1022.46 1022.47 1022.39 1022.46 1022.52 1022.42 1022.38 1022.43 1022.96
1018.98 1018.88 1019.00 1019.11 1019.44 1019.80 1020.17 1020.54 1020.67 1020.74 1021.08 1021.51 1021.59 1021.91 1022.21 1021.64 1021.68 1021.33 1020.96 1021.48 1021.77 1021.79 1022.09 1022.20 1022.56 1022.30 1022.36 1022.26 1022.17 1022.40 1022.48 1022.59 1022.90 1023.26 1023.45 1023.81 1023.89 1023.87 1023.78 1023.67 1023.73 1023.79 1024.03
1020.19 1020.39 1020.33 1020.11 1020.24 1020.25 1020.30 1020.95 1021.29 1021.51 1021.58 1021.71 1021.87 1022.29 1022.44 1022.17 1022.17 1022.09 1022.00 1021.96 1022.24 1022.43 1022.66 1022.89 1022.85 1022.66 1022.64 1022.95 1023.15 1023.01 1023.04 1023.51 1023.92 1024.25 1024.70 1024.97 1024.95 1024.99 1024.69 1024.49 1024.49 1024.73 1024.93
1021.03 1021.20 1021.27 1021.16 1021.41 1021.29 1021.23 1021.41 1021.65 1021.91 1022.19 1022.34 1022.43 1022.55 1022.61 1022.63 1022.49 1022.67 1022.91 1022.90 1022.53 1022.66 1022.88 1023.34 1023.13 1023.13 1023.47 1023.68 1023.85 1024.06 1024.11 1024.43 1024.74 1025.18 1025.63 1025.81 1025.69 1025.56 1025.55 1025.68 1025.55 1025.25 1025.45
1020.93 1021.31 1021.63 1021.63 1021.87 1022.17 1022.40 1022.28 1022.65 1022.88 1022.84 1022.82 1022.75 1022.60 1022.86 1023.00 1023.16 1023.09 1023.15 1023.47 1023.53 1023.52 1023.46 1023.74 1024.01 1023.97 1024.65 1024.75 1025.08 1025.45 1025.31 1025.43 1025.52 1026.14 1026.47 1026.60 1026.63 1026.58 1026.62 1026.47 1026.44 1026.46 1026.77
1021.26 1021.49 1021.66 1022.05 1022.37 1022.54 1022.93 1022.98 1023.34 1023.40 1023.07 1022.88 1022.89 1022.90 1023.33 1023.27 1023.64 1023.70 1023.56 1023.54 1023.87 1024.29 1024.05 1024.44 1025.04 1025.24 1025.27 1025.55 1025.88 1026.32 1026.37 1026.25 1026.76 1027.31 1027.40 1027.53 1027.47 1027.37 1027.39 1027.33 1027.27 1027.30 1027.40
1021.76 1022.07 1022.26 1022.54 1022.79 1023.01 1023.23 1023.27 1023.34 1023.73 1023.68 1023.73 1023.43 1023.68 1023.55 1023.46 1023.95 1024.12 1023.78 1023.63 1023.88 1024.23 1024.74 1025.58 1025.64 1026.02 1026.43 1026.63 1026.66 1027.04 1027.41 1027.64 1028.12 1028.24 1028.08 1028.03 1028.11 1028.00 1028.04 1027.97 1027.98 1028.17 1028.00
1022.00 1022.08 1022.42 1022.69 1022.81 1023.02 1023.24 1023.36 1023.33 1023.91 1023.97 1024.08 1024.04 1023.84 1023.75 1023.54 1023.83 1024.30 1024.14 1023.62 1024.77 1025.27 1025.77 1026.00 1026.32 1026.71 1027.24 1027.79 1027.40 1027.87 1028.22 1028.46 1028.78 1028.63 1028.78 1028.77 1028.70 1028.85 1028.94 1029.09 1029.00 1028.86 1028.79
1022.22 1022.34 1022.48 1022.53 1022.64 1022.83 1022.96 1023.16 1023.63 1024.02 1024.27 1024.25 1024.30 1024.07 1024.07 1023.99 1024.19 1024.94 1024.64 1024.55 1025.44 1025.68 1026.42 1026.85 1027.17 1027.29 1027.78 1028.21 1027.93 1028.55 1028.82 1029.14 1029.14 1029.02 1029.31 1029.36 1029.50 1029.40 1029.37 1029.55 1029.52 1029.40 1029.29
1022.56 1022.64 1022.80 1022.93 1023.11 1023.20 1023.45 1023.76 1024.11 1024.34 1024.42 1024.34 1024.28 1024.26 1024.13 1024.58 1025.08 1024.95 1025.15 1025.55 1025.96 1026.46 1026.55 1027.35 1027.56 1027.90 1028.23 1028.30 1028.20 1028.69 1029.58 1029.61 1029.63 1029.53 1029.66 1030.03 1029.85 1029.73 1029.76 1029.71 1029.87 1029.85 1029.69
1022.62 1022.76 1022.82 1022.96 1023.06 1023.20 1023.41 1023.60 1023.84 1024.09 1024.35 1024.59 1024.73 1024.35 1024.21 1024.12 1024.48 1025.07 1025.49 1025.85 1026.23 1026.47 1026.39 1027.28 1027.62 1027.77 1028.17 1028.43 1028.71 1029.21 1029.48 1029.53 1029.63 1029.86 1029.93 1030.02 1029.99 1030.01 1030.03 1029.89 1029.79 1029.59 1029.70
1022.20 1022.44 1022.66 1022.86 1023.05 1023.20 1023.32 1023.36 1023.56 1023.69 1024.03 1024.13 1024.14 1024.19 1024.40 1024.41 1024.79 1025.11 1025.24 1025.56 1025.86 1025.75 1026.33 1026.88 1027.28 1027.18 1027.66 1028.06 1028.29 1028.66 1028.91 1029.18 1029.55 1029.81 1030.02 1030.20 1030.09 1030.11 1030.00 1029.99 1029.98 1029.88 1029.75
1021.92 1022.23 1022.46 1022.60 1022.71 1022.80 1023.01 1023.17 1023.35 1023.43 1023.56 1023.62 1023.83 1024.15 1024.35 1024.57 1024.87 1025.16 1025.19 1025.45 1025.68 1025.80 1026.26 1026.55 1026.88 1027.41 1027.57 1027.60 1027.76 1028.07 1028.50 1028.91 1029.13 1029.47 1029.76 1029.92 1029.97 1030.14 1030.17 1030.06 1030.00 1029.98 1029.75
1021.48 1021.74 1021.99 1022.08 1022.20 1022.44 1022.61 1022.78 1022.89 1022.89 1022.99 1023.13 1023.32 1023.56 1023.87 1024.16 1024.49 1024.85 1025.01 1025.23 1025.56 1025.80 1026.08 1026.33 1026.52 1026.89 1027.28 1027.57 1027.66 1027.83 1028.19 1028.32 1028.53 1028.88 1029.16 1029.70 1029.87 1029.91 1030.01 1029.93 1029.80 1029.74 1029.60
1020.82 1021.19 1021.47 1021.63 1021.79 1021.95 1022.26 1022.37 1022.62 1022.43 1022.48 1022.82 1022.97 1023.17 1023.47 1023.80 1024.13 1024.39 1024.68 1024.85 1025.11 1025.50 1025.71 1025.94 1026.12 1026.33 1026.52 1026.72 1027.14 1027.40 1027.67 1027.96 1028.18 1028.31 1028.80 1029.09 1029.34 1029.61 1029.87 1029.82 1029.81 1029.69 1029.47
1020.60 1020.81 1020.96 1021.17 1021.28 1021.29 1021.87 1021.99 1022.33 1022.24 1022.46 1022.42 1022.58 1022.75 1023.03 1023.42 1023.46 1023.67 1023.97 1024.28 1024.69 1024.91 1025.09 1025.35 1025.49 1025.54 1025.75 1026.05 1026.45 1026.87 1027.27 1027.52 1027.74 1028.06 1028.46 1028.84 1029.15 1029.33 1029.48 1029.43 1029.40 1029.25 1028.94
Wind_Speed
8 6 6 5 6 5 5 6 6 5 5 5 6 6 6 6 5 4 4 4 3 4 3 3 3 2 2 1 1 1 1 2 2 2 1 3 5 4 7 5 4 5 3
8 7 7 5 5 5 6 6 5 6 6 6 5 5 6 5 6 7 7 5 5 5 4 3 4 2 3 3 1 1 1 0 3 1 1 3 5 3 3 5 5 5 4
7 7 6 6 6 6 6 6 5 5 6 6 6 6 6 6 6 6 6 6 6 5 4 5 6 3 2 2 2 2 1 1 2 1 2 1 1 2 2 2 3 4 3
7 6 6 6 6 6 6 6 5 6 6 6 6 6 6 6 6 6 6 5 4 4 5 4 3 5 4 3 3 3 2 2 2 2 1 2 1 2 2 2 4 3 3
4 5 3 3 1 4 5 6 5 5 6 6 5 5 5 5 3 5 4 5 5 4 1 2 3 2 5 6 4 4 4 2 1 2 1 1 2 2 2 3 2 2 2
4 4 3 3 3 3 2 3 4 5 6 6 6 5 6 3 4 4 5 5 4 5 5 3 2 3 4 3 6 7 4 4 2 2 0 1 1 0 1 1 2 2 3
6 6 7 4 4 3 4 5 4 4 4 5 3 4 5 4 6 6 6 4 5 7 6 4 2 2 1 5 9 10 9 8 5 2 2 3 2 2 2 2 1 1 1
5 4 6 6 4 5 5 3 3 4 3 4 5 4 5 4 10 10 10 3 3 2 4 4 5 2 3 4 6 6 6 6 4 2 2 4 4 4 2 1 1 2 2
4 2 2 5 6 7 5 4 4 3 3 4 4 4 4 5 12 8 7 4 5 4 2 3 4 3 4 8 7 6 6 6 7 12 11 9 13 14 7 2 4 3 2
5 3 6 9 7 6 5 5 4 6 7 6 7 6 6 2 12 9 4 3 6 4 1 4 9 6 8 8 6 6 7 3 5 6 6 11 12 12 16 8 4 4 2
4 5 8 5 5 5 4 4 6 8 8 6 7 5 7 6 11 11 11 6 1 3 4 3 4 7 8 9 7 5 5 4 7 7 7 7 8 10 9 9 10 7 4
4 5 5 5 4 5 6 5 6 8 8 6 6 5 3 6 14 15 16 13 8 4 4 3 4 12 14 12 10 12 12 8 6 7 7 7 7 7 7 7 8 9 9
6 6 6 6 5 4 7 7 6 4 5 4 4 3 2 3 4 11 14 14 13 4 2 2 7 13 13 15 16 15 12 7 6 8 6 5 4 4 6 5 6 6 7
6 5 5 7 6 6 4 4 3 4 4 3 3 3 3 3 4 4 3 4 8 8 8 4 11 13 13 9 9 9 7 6 6 5 4 3 3 5 7 6 5 6 4
6 5 4 5 6 6 6 4 3 3 2 1 3 3 3 3 1 2 3 4 3 4 7 4 5 6 7 7 8 7 7 7 8 5 5 5 5 5 6 5 6 4 4
5 4 4 4 3 4 3 4 10 8 9 11 9 4 2 5 2 1 4 7 5 4 4 5 5 4 6 6 6 6 7 9 6 5 5 5 5 5 5 5 4 4 4
5 4 3 4 3 3 2 3 4 5 10 10 11 10 9 5 7 6 11 16 12 9 7 5 6 5 5 5 6 6 6 5 3 4 5 5 5 6 7 6 6 5 5
4 6 4 4 4 3 3 3 3 2 2 2 6 2 7 9 11 8 8 10 7 7 5 5 5 5 4 4 5 5 4 4 4 5 5 5 4 4 4 4 5 5 4
2 1 1 1 2 3 3 3 3 4 3 2 1 4 7 14 14 11 9 7 7 7 5 5 5 5 4 3 5 4 4 4 4 4 4 4 4 3 4 4 4 8 7
2 4 4 2 1 1 3 4 3 2 0 1 3 3 3 4 3 4 5 5 5 4 5 5 4 4 4 4 4 5 4 3 3 3 4 3 3 3 3 3 3 3 3
2 2 3 2 3 3 3 4 4 4 4 4 5 3 4 6 7 6 7 6 6 5 6 6 4 4 3 4 4 4 3 3 3 3 3 3 3 3 3 3 2 1 2
4 3 2 3 3 3 3 3 3 5 5 5 4 2 5 2 4 5 5 5 5 5 5 6 5 5 5 5 5 4 4 4 3 3 3 3 3 3 2 1 2 2 2
4 5 4 3 3 3 1 3 4 5 5 5 4 5 4 4 4 5 6 5 4 5 4 5 5 4 4 4 4 5 6 5 5 4 4 4 3 2 1 0 1 2 2
5 5 5 4 3 3 4 4 4 6 5 5 5 5 5 5 5 6 5 5 5 5 5 5 6 7 6 5 4 4 4 4 5 5 6 4 4 3 1 1 2 3 4
5 5 4 4 4 4 4 3 3 2 2 3 4 4 5 5 5 6 5 5 6 6 7 6 6 8 10 10 8 8 7 10 7 7 4 5 5 5 3 3 3 3 4
5 5 4 4 4 5 3 3 5 4 5 4 4 4 5 5 5 6 7 7 6 7 7 6 8 10 10 9 10 11 9 13 10 9 5 5 5 4 3 4 5 4 5
Wind_Direction
187 192 195 211 214 209 209 228 216 219 219 222 209 191 194 196 190 199 235 220 191 211 228 212 211 198 224 208 207 148 137 151 168 325 315 318 19 28 36 3 18 27 57
178 174 195 199 212 210 221 232 225 217 214 199 190 198 198 201 196 196 212 209 226 228 244 259 246 180 209 177 153 102 128 70 126 198 266 339 41 359 9 26 350 2 10
166 178 183 206 213 219 221 216 223 226 231 210 185 196 207 210 200 200 213 210 222 234 262 253 262 215 209 207 157 101 55 39 37 108 334 343 322 20 30 122 306 327 341
151 171 182 200 210 227 224 212 210 213 222 227 210 205 201 197 199 211 208 202 221 239 259 293 205 197 186 204 174 162 150 120 101 82 357 344 328 328 40 20 348 354 354
148 156 126 46 338 253 249 237 221 214 219 222 217 224 198 178 185 200 200 195 212 220 155 116 85 135 147 162 179 175 159 139 109 103 103 325 342 5 11 327 302 305 323
177 133 120 46 50 347 269 257 232 225 228 220 221 205 211 147 172 216 205 217 205 189 173 135 65 39 54 107 101 96 117 150 135 108 48 321 294 291 345 299 308 15 359
120 134 128 121 93 82 50 34 16 332 293 256 177 150 118 99 313 255 238 217 185 177 160 164 120 324 20 100 94 85 68 61 64 133 163 201 231 189 330 315 359 22 97
123 144 150 149 114 116 96 89 74 76 28 32 22 53 81 42 324 310 285 178 130 116 135 154 148 156 70 120 93 73 50 46 29 37 54 314 271 273 221 242 312 319 40
84 79 223 125 81 57 45 54 60 86 90 80 83 67 70 41 358 312 275 121 105 99 69 94 101 82 66 118 117 105 80 39 31 66 67 52 55 50 37 88 32 57 41
81 42 35 47 55 58 62 76 68 93 101 98 87 60 34 60 31 22 77 25 113 105 79 70 56 78 56 69 104 113 89 32 59 46 26 35 34 37 39 43 22 77 51
80 79 76 78 75 82 87 83 104 98 96 89 87 69 57 9 40 70 76 82 23 103 85 52 44 64 76 73 75 85 95 106 59 64 55 45 40 37 31 27 36 52 68
64 83 84 83 80 112 102 92 103 113 110 109 98 70 16 49 42 39 68 66 51 67 55 53 22 81 72 64 68 73 68 67 64 60 55 42 39 33 26 34 41 65 63
70 55 43 43 47 60 117 128 121 104 117 118 103 106 42 24 60 55 51 59 51 64 22 72 113 82 75 65 56 64 62 59 67 68 61 43 31 23 21 31 38 54 59
82 73 58 65 46 39 54 42 80 128 122 108 123 114 85 45 51 66 55 54 62 69 60 53 86 86 80 76 59 53 64 65 71 70 59 38 21 36 43 23 25 6 54
101 91 75 82 75 65 45 37 50 58 9 111 147 128 117 83 73 44 39 103 98 91 93 70 49 61 62 62 62 52 55 53 59 43 46 45 44 50 44 27 39 31 57
102 104 111 102 94 94 72 77 47 37 55 64 56 91 45 83 64 100 135 145 137 210 81 91 107 92 92 86 74 58 53 57 47 52 50 47 47 47 40 33 34 45 42
118 114 94 91 104 119 132 101 96 46 56 58 75 62 60 57 23 35 92 78 72 89 96 87 73 61 70 84 85 75 65 60 66 57 58 48 44 45 39 37 31 22 24
111 131 139 134 124 98 87 91 87 94 79 62 21 68 76 63 89 92 80 77 61 45 61 82 80 78 71 63 89 89 74 65 58 64 60 49 45 54 48 36 28 21 16
120 73 124 127 152 146 118 108 122 119 118 93 160 53 43 85 92 69 47 93 106 100 93 88 94 100 96 114 93 83 87 84 85 81 66 61 58 67 61 43 31 29 21
176 182 176 176 193 155 153 157 154 128 47 203 183 159 130 90 109 109 66 71 96 114 105 115 124 114 107 103 104 107 106 104 99 96 96 82 68 75 71 55 33 19 349
177 223 207 172 194 182 184 207 200 189 191 197 221 223 186 143 146 148 155 154 148 153 142 149 141 125 121 128 129 136 133 124 117 105 101 99 87 76 57 68 55 346 321
184 194 203 201 182 186 200 205 204 191 195 204 219 227 193 142 147 160 157 161 167 154 154 152 158 155 162 166 157 155 153 153 157 152 141 131 109 93 79 61 358 350 324
192 192 200 210 206 220 236 176 191 191 202 213 206 189 178 182 176 184 173 170 172 160 163 156 156 170 180 175 173 168 167 184 181 167 160 155 146 145 178 60 341 311 310
198 206 210 222 205 212 225 234 199 204 210 214 207 197 190 187 177 191 184 172 173 175 177 175 178 182 183 189 190 183 185 168 164 173 160 165 176 175 199 242 267 288 299
186 191 196 199 203 198 206 227 250 206 179 210 209 194 184 189 191 189 191 179 179 179 191 195 192 192 190 194 193 191 189 175 174 161 164 167 180 192 210 229 249 266 272
187 181 171 175 174 168 167 177 222 187 200 214 214 207 187 200 204 189 191 185 189 197 192 201 211 202 197 207 200 194 188 189 181 178 169 175 185 201 212 228 252 260 277